Temp
62 62 61 61 61 61 61 61 61 61 61 62 62 62 62 62 62 67 65 68 69 72 71 75 77 80 79 72 72 70 53 49 56 60 64 71 69 78 81 78 80 80 79 84 86
61 61 61 61 61 61 60 61 61 61 61 62 62 61 61 61 64 69 73 75 74 73 74 73 71 78 68 70 69 63 51 56 65 68 64 68 69 72 74 74 75 78 84 88 86
60 61 60 60 61 60 60 60 61 61 61 61 61 61 61 61 63 67 75 75 74 74 75 75 75 75 66 67 69 65 57 66 70 72 71 69 69 75 71 67 73 73 78 83 82
60 60 60 60 60 60 60 60 60 61 61 61 61 61 61 64 55 72 76 75 74 74 74 73 74 66 60 61 70 57 70 70 71 74 70 68 72 70 71 71 78 80 80 80 78
59 59 59 60 60 60 60 60 60 60 60 60 61 62 66 66 67 81 76 77 76 77 76 74 68 65 58 63 67 63 67 71 71 69 69 72 69 69 69 77 81 81 82 78 77
59 59 59 59 59 60 59 59 59 59 60 60 62 61 64 62 84 85 80 80 80 79 79 76 68 71 64 63 61 67 68 68 69 68 69 68 69 69 73 78 78 79 77 78 77
58 58 58 58 59 59 59 59 59 59 60 61 63 68 69 65 85 86 84 80 84 84 76 75 75 69 67 62 69 68 61 65 69 69 68 72 64 66 75 78 75 74 73 75 77
58 58 58 58 59 59 59 59 59 60 62 63 64 66 64 85 83 82 85 84 87 85 82 80 78 69 65 69 67 62 59 50 65 70 71 68 53 69 75 72 73 76 76 77 75
58 57 57 58 58 59 59 59 60 62 63 64 63 64 64 79 82 85 81 82 83 84 82 88 74 67 67 58 53 56 48 54 59 69 68 63 57 69 74 73 70 71 72 75 74
58 57 57 57 58 58 58 58 64 61 70 75 77 64 73 76 84 86 86 86 80 78 75 73 66 59 57 51 42 49 50 53 54 64 66 61 61 69 71 70 69 69 71 71 72
58 57 57 57 57 57 60 65 64 61 64 68 73 73 82 85 87 83 86 82 79 71 60 67 55 51 57 60 61 59 56 54 60 67 60 57 59 64 69 67 68 67 69 70 71
57 57 57 57 56 56 53 62 71 74 64 78 80 80 85 84 75 82 86 71 69 60 66 60 53 64 68 66 62 59 55 54 60 66 62 59 59 65 68 69 71 71 68 69 69
56 56 57 57 56 55 67 74 83 79 61 73 80 79 78 80 75 76 79 73 66 61 61 55 62 72 68 62 60 58 55 54 54 61 61 58 54 58 67 70 72 74 71 70 70
56 56 56 55 59 72 72 82 82 78 51 67 73 78 80 78 71 85 83 73 65 61 62 59 68 67 62 61 62 50 62 61 58 53 44 56 43 54 60 62 66 67 66 68 70
56 56 56 56 55 67 77 80 78 71 38 71 75 86 82 73 75 76 83 73 63 63 62 57 62 61 60 62 64 55 63 60 58 53 49 54 43 54 55 57 62 65 68 67 68
56 56 55 59 59 71 81 78 72 50 40 67 75 72 70 73 75 78 75 76 73 65 65 63 71 68 65 67 65 66 59 56 55 50 37 50 48 44 47 53 61 67 70 70 67
56 55 53 69 67 81 79 69 49 42 71 66 67 71 68 65 69 70 67 60 55 49 50 60 62 68 69 58 62 59 47 34 33 33 34 53 46 46 55 60 61 64 65 67 66
54 53 59 74 77 78 70 56 42 60 64 71 68 66 60 67 66 67 62 55 64 60 51 46 44 63 68 58 52 51 47 35 28 29 38 51 41 48 58 61 62 65 64 64 60
53 64 67 73 77 73 60 43 49 60 69 64 64 58 59 66 63 61 58 58 64 60 48 45 50 65 66 67 61 51 43 52 42 43 35 41 49 55 59 60 60 60 66 61 59
52 59 68 79 77 67 53 49 57 67 70 66 53 59 52 58 56 57 57 65 64 68 62 53 43 59 64 65 64 55 58 40 39 30 28 39 43 45 54 56 60 58 57 59 60
52 59 73 80 73 59 47 54 64 74 70 61 56 53 55 54 56 54 56 63 66 64 61 54 46 49 56 51 50 52 47 51 47 44 32 30 37 53 55 55 53 58 61 61 60
54 52 74 75 55 55 52 62 65 68 70 65 62 58 55 55 53 53 54 59 68 63 53 54 45 41 47 58 62 59 53 49 31 36 37 39 41 59 61 57 62 62 64 60 57
48 56 72 69 50 52 59 64 66 64 64 63 59 60 58 53 45 54 56 66 67 61 54 52 41 32 39 47 54 51 55 50 47 43 37 34 40 62 63 64 65 63 60 61 59
51 51 60 61 60 54 51 55 57 67 64 65 61 61 54 51 54 49 55 63 65 64 63 58 44 40 34 40 47 44 49 52 48 37 41 43 47 54 58 60 64 60 57 56 57
54 53 56 48 52 51 52 54 54 55 64 63 57 58 54 46 49 49 53 56 60 61 55 50 40 45 47 50 51 50 50 51 48 49 41 46 47 53 58 60 59 57 58 59 58
51 49 53 50 52 52 51 51 53 57 59 57 53 58 55 46 48 46 50 47 46 52 49 47 39 45 42 50 50 46 50 51 51 51 50 50 49 59 61 61 57 56 57 58 58
54 55 50 48 49 48 49 52 54 57 59 62 58 53 51 53 56 53 52 50 49 46 45 43 41 35 33 44 44 36 45 48 49 52 51 45 51 59 53 55 54 54 56 55 56
MSLP
1017.78 1017.48 1017.26 1017.04 1016.78 1016.52 1016.29 1016.08 1015.77 1015.53 1015.34 1015.20 1015.05 1014.84 1014.50 1014.05 1013.11 1012.62 1012.26 1011.70 1011.36 1011.01 1011.01 1010.47 1009.62 1008.79 1008.52 1008.61 1008.32 1008.35 1009.68 1009.88 1008.93 1008.06 1006.98 1006.06 1005.81 1004.93 1004.34 1004.26 1004.12 1004.29 1004.39 1004.03 1004.13
1017.95 1017.60 1017.30 1017.06 1016.81 1016.53 1016.24 1015.98 1015.76 1015.54 1015.34 1015.00 1014.87 1014.81 1014.51 1014.12 1013.58 1012.43 1011.39 1011.03 1010.88 1010.85 1010.58 1010.23 1009.68 1008.70 1008.75 1008.46 1008.25 1008.65 1009.40 1008.87 1008.26 1007.71 1007.05 1006.50 1006.40 1005.93 1005.55 1005.23 1005.01 1004.61 1004.42 1004.11 1004.29
1018.16 1017.73 1017.39 1017.05 1016.76 1016.50 1016.26 1015.96 1015.66 1015.47 1015.35 1015.13 1014.84 1014.55 1014.27 1013.97 1013.40 1011.78 1010.93 1010.78 1010.59 1010.75 1010.87 1010.47 1009.67 1009.09 1008.84 1008.25 1008.08 1008.00 1008.44 1008.14 1007.54 1007.23 1006.79 1006.49 1006.55 1006.23 1006.02 1006.02 1005.59 1005.37 1004.96 1004.69 1004.68
1018.38 1017.94 1017.49 1017.09 1016.71 1016.41 1016.14 1015.89 1015.59 1015.37 1015.25 1015.07 1014.86 1014.43 1013.85 1013.70 1012.84 1011.17 1010.68 1010.46 1010.41 1010.72 1010.74 1009.83 1008.94 1008.96 1009.05 1008.88 1007.96 1007.95 1007.76 1007.73 1007.49 1006.96 1006.94 1006.86 1006.51 1006.46 1006.34 1006.04 1005.55 1005.08 1004.96 1004.90 1004.99
1018.61 1018.13 1017.64 1017.10 1016.66 1016.30 1015.99 1015.74 1015.51 1015.28 1015.20 1015.09 1014.82 1014.44 1013.48 1012.91 1011.29 1010.44 1010.34 1010.16 1010.27 1010.33 1010.03 1009.55 1009.47 1009.57 1009.69 1009.22 1008.55 1008.11 1008.19 1007.76 1007.31 1007.14 1007.06 1006.83 1006.73 1006.40 1006.00 1005.56 1005.15 1005.00 1004.92 1004.98 1004.99
1018.78 1018.26 1017.70 1017.13 1016.61 1016.14 1015.80 1015.53 1015.34 1015.08 1015.00 1015.00 1014.84 1014.70 1014.08 1011.94 1009.35 1009.58 1009.80 1009.79 1010.09 1009.42 1009.41 1009.34 1009.68 1009.71 1009.69 1009.51 1009.25 1008.65 1008.37 1007.80 1007.36 1007.05 1006.96 1006.85 1006.42 1006.03 1005.67 1005.05 1004.90 1004.67 1004.77 1004.82 1005.06
1018.84 1018.29 1017.76 1017.21 1016.62 1016.08 1015.57 1015.27 1015.04 1014.85 1014.81 1014.84 1014.80 1014.39 1013.07 1010.84 1008.80 1008.91 1009.06 1009.00 1008.79 1008.96 1009.17 1009.21 1009.40 1009.83 1009.79 1009.62 1008.86 1008.83 1008.82 1007.89 1006.98 1006.22 1006.40 1006.11 1006.28 1006.00 1005.17 1004.73 1004.36 1004.64 1004.67 1004.90 1005.07
1018.89 1018.28 1017.70 1017.19 1016.64 1016.08 1015.53 1015.03 1014.74 1014.55 1014.48 1014.49 1014.58 1014.12 1011.95 1008.88 1008.58 1008.63 1008.57 1008.53 1008.33 1008.47 1008.59 1008.61 1008.88 1009.38 1009.56 1009.11 1008.67 1008.91 1008.90 1008.30 1006.74 1005.94 1006.16 1006.11 1006.00 1005.36 1004.58 1004.54 1004.50 1004.47 1004.66 1004.79 1004.89
1018.94 1018.31 1017.65 1017.05 1016.54 1015.94 1015.41 1014.88 1014.38 1014.17 1013.99 1014.17 1014.32 1013.59 1010.97 1008.72 1008.67 1008.37 1008.30 1008.37 1008.52 1008.50 1008.28 1008.22 1008.60 1009.13 1009.19 1009.33 1009.33 1008.93 1009.05 1008.42 1007.43 1006.59 1006.35 1006.21 1005.91 1005.24 1004.53 1004.43 1004.40 1004.22 1004.23 1004.51 1004.47
1019.05 1018.32 1017.59 1016.83 1016.45 1015.95 1015.11 1014.56 1013.98 1013.97 1013.02 1013.32 1012.97 1012.83 1010.08 1008.57 1008.23 1008.31 1008.20 1008.18 1008.33 1008.39 1008.32 1008.14 1008.79 1009.13 1008.98 1009.66 1009.77 1009.41 1009.29 1008.66 1008.16 1007.16 1006.44 1006.14 1005.61 1005.01 1004.50 1004.24 1004.14 1004.16 1003.88 1003.94 1004.11
1018.96 1018.22 1017.51 1016.75 1016.18 1015.96 1014.91 1014.03 1014.20 1013.87 1013.03 1011.91 1010.80 1010.03 1008.42 1008.17 1008.01 1007.86 1007.86 1007.96 1008.01 1008.43 1008.66 1007.97 1008.89 1008.78 1008.76 1008.68 1008.96 1009.16 1009.16 1008.78 1007.84 1007.06 1006.85 1006.67 1006.04 1005.42 1004.66 1004.15 1003.91 1003.84 1003.77 1003.52 1003.46
1018.96 1018.13 1017.27 1016.49 1015.91 1015.75 1015.84 1014.39 1012.08 1011.56 1010.65 1010.01 1009.29 1008.65 1008.09 1007.96 1007.99 1007.22 1007.48 1008.06 1008.41 1008.81 1008.46 1008.38 1008.14 1008.06 1007.93 1008.15 1008.52 1008.81 1008.80 1008.38 1007.53 1007.05 1006.92 1006.71 1006.18 1005.34 1004.39 1003.85 1003.52 1003.22 1003.32 1003.03 1003.04
1018.93 1018.09 1017.17 1016.15 1015.36 1014.99 1014.14 1012.62 1010.72 1010.54 1010.82 1008.72 1007.78 1007.62 1007.28 1007.65 1007.51 1007.20 1007.35 1007.95 1008.55 1008.81 1008.65 1008.50 1007.84 1007.35 1007.46 1007.83 1008.09 1008.27 1008.44 1008.36 1008.14 1007.62 1007.36 1006.99 1006.13 1005.32 1003.98 1003.25 1002.47 1001.57 1002.14 1002.29 1002.57
1018.77 1017.92 1017.16 1016.07 1015.15 1013.56 1012.59 1011.13 1010.65 1010.82 1010.88 1008.04 1007.14 1006.82 1006.96 1007.15 1007.09 1006.82 1007.15 1008.21 1008.71 1008.74 1008.55 1008.32 1007.35 1007.49 1007.37 1007.58 1007.69 1008.16 1008.35 1008.44 1008.46 1008.24 1007.76 1007.16 1006.36 1005.28 1004.38 1003.82 1003.20 1001.92 1002.65 1002.20 1002.30
1018.57 1017.62 1016.88 1016.71 1015.70 1013.70 1011.51 1010.67 1010.85 1011.17 1010.40 1007.11 1006.58 1006.59 1006.64 1007.16 1006.70 1006.55 1006.91 1007.74 1008.44 1008.68 1008.97 1008.43 1007.91 1007.53 1007.22 1007.09 1007.63 1008.26 1008.29 1008.47 1008.53 1008.41 1008.20 1006.46 1007.10 1005.21 1004.91 1004.43 1004.13 1003.63 1002.66 1002.37 1002.36
1018.11 1017.23 1016.79 1015.88 1015.23 1012.65 1011.35 1010.78 1011.13 1011.62 1008.97 1006.62 1006.39 1006.43 1006.73 1006.70 1006.53 1006.56 1006.90 1007.23 1007.38 1007.94 1008.09 1007.79 1007.28 1006.97 1006.59 1006.77 1007.46 1008.02 1008.34 1008.58 1008.44 1008.49 1008.93 1007.70 1007.28 1006.24 1005.86 1004.97 1003.93 1003.22 1002.91 1002.97 1002.84
1017.61 1016.20 1016.62 1014.98 1013.39 1011.58 1011.32 1011.66 1011.97 1010.53 1007.30 1007.03 1006.71 1006.65 1006.91 1006.99 1006.81 1006.72 1007.09 1007.51 1008.01 1008.03 1008.02 1007.73 1007.23 1006.60 1006.51 1006.95 1007.51 1008.23 1009.34 1009.91 1009.68 1009.39 1008.97 1008.01 1007.67 1006.24 1005.61 1005.11 1004.87 1004.00 1003.58 1003.16 1003.21
1017.30 1015.26 1014.03 1013.24 1012.21 1011.83 1012.07 1012.57 1012.01 1009.34 1008.06 1007.70 1007.65 1007.66 1007.61 1007.17 1006.96 1007.22 1007.43 1007.69 1007.46 1007.53 1007.64 1007.97 1007.90 1006.66 1007.04 1007.38 1007.76 1008.32 1009.20 1010.74 1010.91 1010.74 1009.68 1009.09 1007.77 1006.23 1005.72 1004.96 1004.46 1004.54 1004.44 1004.15 1004.38
1016.82 1014.59 1013.43 1012.05 1011.90 1011.96 1012.86 1012.82 1010.95 1009.14 1008.29 1008.22 1008.17 1008.05 1008.00 1007.71 1007.67 1007.77 1007.72 1007.55 1007.22 1007.41 1008.25 1008.47 1008.10 1007.29 1007.50 1007.62 1008.11 1008.43 1009.23 1009.67 1010.66 1010.69 1010.40 1009.06 1007.34 1006.31 1005.34 1004.78 1004.47 1004.31 1004.32 1004.41 1004.83
1018.01 1015.26 1012.47 1010.89 1011.40 1012.33 1013.09 1012.39 1010.76 1009.39 1008.78 1008.84 1009.15 1009.26 1009.41 1009.19 1009.02 1008.78 1008.40 1007.73 1007.46 1007.52 1007.66 1008.50 1008.62 1008.62 1008.35 1007.97 1007.79 1008.09 1008.52 1009.51 1010.41 1010.98 1010.40 1008.64 1007.43 1006.33 1005.37 1004.86 1004.55 1004.36 1004.07 1004.01 1004.14
1017.95 1015.19 1011.33 1010.57 1011.31 1012.53 1012.89 1011.66 1010.33 1009.23 1009.08 1009.44 1009.64 1010.05 1010.40 1010.36 1010.13 1009.83 1009.15 1008.47 1007.86 1008.09 1008.61 1009.23 1009.56 1009.54 1009.51 1008.91 1008.43 1008.23 1008.28 1008.97 1009.58 1010.20 1010.50 1008.84 1006.76 1005.31 1004.90 1004.57 1004.40 1004.18 1003.75 1003.45 1003.38
1019.06 1015.88 1011.35 1010.85 1012.02 1012.12 1011.92 1011.32 1010.09 1009.27 1008.83 1009.03 1009.47 1010.16 1010.66 1010.73 1010.61 1010.43 1009.67 1009.12 1008.64 1008.91 1009.40 1010.05 1010.48 1010.25 1009.98 1009.17 1008.53 1008.23 1008.24 1008.78 1009.61 1010.01 1009.52 1008.22 1005.25 1004.89 1004.08 1003.91 1003.46 1003.20 1002.89 1002.91 1002.96
1020.45 1016.32 1011.36 1011.38 1012.28 1012.34 1011.67 1011.26 1010.64 1009.90 1009.26 1009.11 1009.46 1010.04 1010.63 1011.07 1010.95 1010.28 1009.78 1009.23 1009.14 1009.23 1009.62 1010.30 1011.12 1011.09 1010.17 1009.35 1008.30 1008.14 1008.51 1008.96 1009.17 1009.17 1009.49 1008.68 1004.92 1004.20 1003.90 1003.34 1002.58 1002.20 1002.28 1002.40 1002.65
1021.10 1016.95 1013.49 1012.85 1012.62 1013.27 1013.25 1012.15 1011.21 1010.31 1009.84 1009.64 1009.61 1009.94 1010.72 1011.05 1011.05 1010.63 1010.09 1009.62 1009.53 1009.58 1010.10 1010.33 1010.96 1011.76 1011.10 1010.42 1010.28 1009.95 1008.68 1008.52 1009.07 1008.93 1008.02 1006.83 1004.37 1004.18 1003.43 1002.73 1002.05 1001.99 1002.26 1002.39 1002.66
1020.72 1017.74 1016.59 1015.52 1014.37 1014.69 1014.40 1013.46 1012.22 1011.00 1010.37 1009.73 1009.64 1009.96 1010.53 1010.99 1011.02 1010.81 1010.48 1010.18 1010.06 1010.05 1010.49 1011.07 1011.27 1011.46 1010.71 1010.47 1009.96 1009.06 1008.58 1008.12 1007.88 1007.40 1007.24 1005.11 1004.75 1004.09 1003.43 1002.38 1002.26 1002.25 1002.29 1002.42 1002.66
1020.87 1019.71 1018.67 1017.61 1016.39 1015.36 1014.67 1013.54 1012.65 1011.55 1010.82 1010.17 1010.15 1010.28 1010.51 1010.88 1011.09 1011.03 1011.00 1011.02 1010.89 1010.83 1011.16 1011.34 1010.97 1011.57 1009.84 1010.37 1009.61 1008.43 1007.73 1006.89 1006.57 1006.45 1006.03 1005.32 1003.79 1003.61 1002.99 1002.20 1002.09 1002.19 1002.11 1002.14 1002.31
1021.79 1020.79 1019.98 1018.38 1017.43 1016.65 1015.35 1014.08 1013.12 1012.50 1011.27 1010.65 1010.37 1010.59 1010.77 1010.78 1010.75 1010.82 1010.93 1010.98 1010.90 1010.95 1011.14 1011.62 1011.83 1012.30 1009.64 1011.02 1010.01 1007.73 1006.38 1006.00 1005.50 1005.60 1005.46 1004.57 1003.77 1003.39 1003.23 1003.19 1002.80 1002.29 1002.22 1002.26 1002.32
Wind_Speed
14 13 12 12 12 12 12 12 12 13 13 13 12 13 14 16 18 2 3 4 5 10 8 10 12 13 8 5 5 2 4 5 7 4 9 8 10 10 5 5 5 3 4 9 6
16 14 13 12 12 12 12 13 13 12 12 14 13 12 12 15 4 6 4 6 9 8 7 8 10 6 4 6 4 5 3 9 5 7 6 6 9 9 8 9 5 7 6 8 8
18 16 14 13 13 12 12 13 13 12 11 12 14 14 14 12 4 2 8 8 10 6 6 11 17 10 7 6 7 6 7 7 8 7 7 7 7 7 7 7 7 6 7 6 7
19 17 16 14 13 12 12 13 14 15 13 12 13 14 16 3 3 3 9 11 11 5 6 9 8 7 5 7 7 1 6 5 9 8 7 8 9 6 7 8 9 10 8 5 5
20 18 17 15 14 13 12 12 13 14 12 10 11 12 8 4 6 8 12 12 8 6 10 5 9 8 7 7 10 7 8 8 8 8 8 8 8 10 8 10 10 10 9 8 6
18 19 18 16 16 14 13 12 12 13 11 8 8 11 3 6 6 12 11 10 13 6 9 9 6 8 6 7 6 6 8 10 9 11 9 9 11 5 10 10 10 10 9 5 5
19 18 18 17 16 15 15 13 13 13 13 9 6 5 5 11 4 6 11 8 5 4 3 2 4 6 8 8 9 9 9 11 17 12 11 12 6 7 14 13 7 1 2 4 7
21 20 19 17 16 15 15 15 14 13 11 6 3 3 7 5 3 6 9 5 5 6 3 4 5 6 6 10 9 9 6 5 11 7 5 7 7 12 8 3 6 7 6 7 7
22 22 21 19 17 16 16 15 14 13 11 7 3 3 9 2 4 2 2 3 5 7 7 8 3 7 9 6 7 3 3 8 9 10 8 3 9 7 7 9 8 9 9 10 9
23 23 23 22 18 15 18 10 6 11 5 6 7 6 7 3 4 4 7 3 5 7 9 7 4 6 6 2 4 7 9 9 9 12 14 13 14 13 10 6 8 9 10 9 9
25 24 23 23 20 14 10 4 4 2 3 8 10 8 6 5 2 7 5 5 8 6 7 8 2 8 4 6 5 6 8 10 14 13 6 7 10 12 14 9 11 9 9 8 8
26 26 25 24 20 14 3 3 3 8 10 12 17 18 7 4 7 7 5 3 5 8 10 7 6 6 3 4 6 8 11 13 7 9 12 13 18 17 20 18 18 17 9 10 6
26 26 26 25 24 5 5 8 8 5 3 13 12 10 5 5 8 7 1 4 6 8 9 5 10 13 4 6 9 8 7 8 11 13 11 12 12 8 18 14 14 20 9 7 9
27 26 25 27 4 5 6 9 8 5 2 6 7 4 5 7 10 5 5 3 4 7 6 6 8 13 7 9 5 5 11 12 14 11 11 2 18 9 10 8 16 10 7 6 6
29 28 25 7 7 5 7 5 6 4 4 10 6 6 4 5 6 2 9 5 8 9 7 9 13 13 12 3 6 6 11 13 14 14 10 22 5 10 6 5 11 9 2 5 6
32 29 21 3 4 10 11 6 3 1 7 8 8 9 10 8 5 9 7 8 8 9 10 13 12 15 10 4 2 11 8 10 13 8 2 12 6 4 2 7 6 6 7 7 4
34 33 14 5 5 8 6 5 3 4 3 6 2 4 7 8 11 0 4 5 5 7 7 7 10 10 5 2 5 6 7 6 6 5 6 17 10 8 4 7 9 9 6 4 4
36 33 7 7 6 6 5 3 4 10 10 7 9 8 7 12 3 3 4 8 10 8 3 1 9 4 9 3 5 4 5 5 5 3 12 9 7 3 4 3 6 8 9 13 9
31 4 4 5 10 1 4 2 6 4 10 5 9 5 9 12 1 3 5 8 5 4 1 3 5 12 13 11 6 4 3 9 6 6 4 6 4 3 4 3 2 4 2 7 4
9 5 6 8 6 4 2 6 8 11 5 7 3 3 7 10 11 11 7 9 6 7 8 4 9 7 13 12 11 8 7 3 3 4 6 6 10 10 6 6 6 3 2 3 2
2 5 2 2 5 2 4 7 14 6 5 2 3 6 9 11 10 10 7 14 9 8 9 6 2 4 10 4 11 10 5 5 6 4 5 6 6 4 11 5 3 6 9 8 6
7 5 3 2 1 4 5 8 12 12 4 2 5 7 8 8 7 10 13 8 9 3 3 4 3 7 14 16 18 16 14 9 4 8 5 9 15 9 18 7 14 13 12 4 1
6 6 7 5 3 5 7 10 14 12 9 2 2 4 7 8 6 5 9 11 14 8 2 3 3 6 8 8 4 4 8 5 4 3 9 12 14 9 17 23 19 17 2 3 1
5 5 5 3 2 7 10 6 11 10 13 14 8 5 5 8 8 8 10 6 14 13 14 6 7 10 15 12 8 18 26 22 14 7 14 16 23 16 15 19 19 4 5 4 3
4 4 4 6 7 14 7 8 19 18 14 11 4 7 8 6 7 8 12 14 11 12 5 3 7 10 15 19 21 23 22 23 24 18 17 22 23 22 18 8 3 7 6 6 4
4 5 7 11 11 11 8 7 16 18 15 7 7 9 8 7 7 11 10 4 6 6 8 3 11 11 23 15 18 23 25 25 20 21 22 25 29 15 9 7 3 3 2 4 6
5 5 5 4 9 12 10 15 18 18 8 15 8 7 8 11 9 7 6 5 8 9 13 9 11 4 29 9 17 20 21 19 23 21 19 21 10 12 5 6 6 6 5 5 3
Wind_Direction
2 356 352 344 341 340 339 337 335 335 335 333 337 341 337 331 313 190 323 275 275 308 310 271 275 276 222 261 260 41 27 273 266 342 291 358 13 354 23 42 15 27 318 282 315
6 357 350 343 337 338 336 335 333 333 336 334 340 342 333 332 286 288 258 261 282 318 331 331 325 329 310 255 250 129 136 248 265 327 326 4 14 335 10 347 342 332 305 305 34
6 359 350 341 336 334 333 330 327 329 335 336 336 334 326 321 285 90 240 257 273 300 270 285 280 252 258 274 228 217 200 270 312 312 356 340 351 326 330 320 291 264 303 333 13
6 359 352 341 331 328 326 324 322 325 334 336 334 327 316 257 9 190 226 257 259 270 283 273 325 14 344 326 319 34 327 306 289 315 1 323 313 308 287 265 280 295 287 288 316
6 359 349 340 330 324 320 316 313 314 319 328 331 331 346 270 240 189 212 242 285 257 254 311 23 3 359 299 337 349 316 315 318 333 314 299 285 266 276 276 275 275 277 287 274
358 356 346 338 331 325 318 312 308 304 308 317 318 318 255 287 147 174 207 230 223 345 340 27 3 324 274 326 334 281 307 310 292 271 261 257 260 274 278 264 265 243 233 249 266
354 351 347 339 333 327 319 312 306 304 308 313 316 306 273 244 202 194 209 240 182 217 295 16 357 4 313 295 261 302 304 292 270 242 236 233 271 271 262 275 237 26 319 291 236
349 346 344 340 335 328 319 311 305 300 300 298 287 283 255 260 329 228 250 266 322 228 246 221 240 269 228 260 294 261 269 269 303 34 279 143 247 246 261 282 184 205 244 250 254
346 343 340 338 338 331 319 307 293 297 282 258 248 214 274 149 233 306 322 311 14 299 282 279 212 230 290 271 308 25 296 329 322 341 324 324 265 286 276 259 257 209 208 220 222
345 342 337 335 336 332 312 274 295 318 244 233 258 315 263 262 34 308 263 343 273 251 285 234 226 239 270 218 284 330 336 323 302 308 311 298 281 283 274 281 271 241 224 222 219
342 340 336 332 330 334 338 333 333 309 253 223 265 234 300 29 300 248 223 273 247 238 264 273 128 245 294 35 351 323 300 284 284 281 324 321 318 315 303 299 284 271 258 243 244
339 337 333 328 323 320 273 247 10 237 298 269 259 254 270 155 270 277 148 335 354 295 295 320 236 199 43 320 286 267 268 275 279 336 336 324 305 291 280 272 263 255 236 231 214
336 334 331 325 318 281 210 258 317 16 305 289 254 213 267 172 266 297 121 336 311 293 292 319 277 291 3 315 293 289 290 332 325 323 299 288 285 293 295 288 312 235 198 211 192
334 333 331 326 329 314 267 233 21 48 315 251 175 218 215 196 243 203 119 75 308 290 318 290 266 340 329 284 349 346 338 325 301 295 290 295 294 276 293 340 1 6 317 178 159
332 331 328 311 303 307 287 41 33 53 314 141 178 136 200 225 259 146 153 168 243 277 302 254 293 293 274 269 52 273 279 266 278 286 297 291 219 298 53 327 321 296 119 171 175
329 326 333 111 219 250 296 351 25 345 251 165 144 197 206 234 319 294 182 197 220 240 248 253 265 254 265 60 355 274 292 315 282 265 228 40 11 295 207 224 240 239 13 5 6
328 318 314 277 244 320 7 353 349 218 230 113 86 15 347 309 286 295 290 339 263 285 289 310 304 275 128 179 266 309 0 325 342 356 242 350 331 230 45 33 360 22 356 330 1
328 313 225 223 263 310 21 9 248 276 311 26 12 320 279 267 210 283 234 254 268 264 228 259 310 330 25 16 283 299 170 180 276 297 297 316 250 276 191 116 71 14 9 40 55
322 305 256 234 232 83 58 269 241 265 337 13 331 338 320 352 223 246 290 287 286 93 101 1 253 315 330 329 327 293 300 235 257 264 325 246 277 251 213 65 195 167 327 28 80
318 292 256 215 150 78 100 242 280 288 353 24 348 320 294 325 342 339 325 301 336 326 136 220 294 274 303 312 293 180 216 314 304 305 257 254 303 266 275 16 39 37 258 235 280
271 311 258 79 97 101 210 246 283 314 86 54 337 331 317 313 311 303 290 315 4 10 24 15 263 300 339 279 283 293 299 273 205 174 221 281 244 297 311 338 326 281 265 246 209
330 309 198 108 65 229 227 260 319 336 336 193 175 234 257 284 302 307 303 286 349 61 325 351 269 283 261 283 279 268 271 260 172 268 238 254 270 269 268 259 307 293 276 211 53
307 267 276 130 239 285 303 324 329 309 327 72 283 348 326 305 315 266 292 308 310 305 240 165 283 326 305 308 336 43 337 309 260 13 260 263 266 323 297 290 277 270 130 144 184
289 297 335 357 315 25 359 317 314 321 311 305 252 226 284 278 268 259 257 288 317 318 325 167 192 210 253 249 283 285 297 296 285 238 274 258 286 294 295 293 299 68 114 54 59
238 293 2 314 325 323 312 289 294 297 292 291 288 219 237 266 291 292 314 315 307 307 325 182 242 246 260 270 264 266 268 265 273 275 278 292 291 295 295 315 272 148 96 66 20
310 349 342 301 290 309 316 307 301 296 289 299 329 311 311 287 270 296 298 313 251 308 303 274 276 279 273 276 280 285 270 268 271 278 277 281 281 279 291 270 46 74 156 214 250
1 334 307 279 294 290 280 285 303 318 311 324 326 327 309 295 300 299 286 263 254 266 263 255 276 301 275 302 300 277 249 260 264 260 262 273 279 275 322 20 0 346 356 94 78